Regional Weather Roundup
Issued by NWS

Home | Current Version | Previous Version | Graphics & Text | Print | Product List | Glossary Off
Versions: 1 2 3 4 5 6 7 8 9 10 11 12 13 14 15 16 17 18 19 20 21 22 23 24 25 26 27 28 29 30 31 32 33 34 35 36 37 38 39 40 41 42 43 44 45 46 47 48 49 50

000
ASUS43 KBIS 271620
RWRND

NORTH DAKOTA REGIONAL WEATHER ROUNDUP
NATIONAL WEATHER SERVICE BISMARCK ND
1000 AM CST SAT DEC 27 2014

NOTE: "FAIR" INDICATES FEW OR NO CLOUDS BELOW 12,000 FEET WITH NO
SIGNIFICANT WEATHER AND/OR OBSTRUCTIONS TO VISIBILITY.


NDZ001>003-009>011-017-271700-
NORTHWEST NORTH DAKOTA

CITY           SKY/WX    TMP DP  RH WIND       PRES   REMARKS
WILLISTON      CLOUDY    17  13  84 SW12      29.99F WCI   4
MINOT          CLOUDY    19  13  77 S7        29.99F WCI  10
MINOT AFB      CLOUDY    19  16  90 SW7       29.99F WCI   9
$$

NDZ018>021-031>035-040>046-271700-
SOUTHWEST NORTH DAKOTA

CITY           SKY/WX    TMP DP  RH WIND       PRES   REMARKS
BISMARCK       SUNNY     14  12  92 CALM      30.09R
DICKINSON      CLEAR     19  13  77 SW14      30.00F WCI   6
GARRISON         N/A     19  16  88 W7        30.02F WCI  10
HETTINGER ARPT SUNNY     19  13  77 W8        30.06S WCI   9
$$

NDZ004>008-012>016-024-026-027-054-271700-
NORTHEAST NORTH DAKOTA

CITY           SKY/WX    TMP DP  RH WIND       PRES   REMARKS
GRAND FORKS    FLURRIES   9   5  84 S9        30.09S WCI  -4
GRND FRKS AFB  LGT SNOW  10   9  92 S6        30.08S FOG     WCI   1
DEVILS LAKE    SUNNY     18  12  79 W8        30.01S WCI   7
$$

NDZ022-023-025-028>030-036>039-047>053-271700-
SOUTHEAST NORTH DAKOTA

CITY           SKY/WX    TMP DP  RH WIND       PRES   REMARKS
FARGO          PTSUNNY   10   5  80 S9        30.12F WCI  -3
JAMESTOWN      CLOUDY    18  13  80 W12       30.06R WCI   5
$$



USA.gov is the U.S. government's official web portal to all federal, state and local government web resources and services.